Tracking 29606 objects as of 18-Sep-2024
HD Live streaming from Space Station
objects crossing your sky now

THOR ABLESTAR DEB

Track THOR ABLESTAR DEB now!
10-day predictions


NORAD ID: 5715
Int'l Code: 1961-015JS
Perigee: 918.3 km
Apogee: 1,146.4 km
Inclination: 66.6 °
Period: 105.7 minutes
Semi major axis: 7403 km
RCS: 0.0104 m2 (small)
Launch date: June 29, 1961
Source: United States (US)
Launch site: AIR FORCE EASTERN TEST RANGE (AFETR)

Note: This is SATELLITE DEBRIS
Your satellite tracking list
Your tracking list is empty




NASA's NSSDC Master Catalog

Two Line Element Set (TLE):
1 05715U 61015JS  24260.71682017  .00002546  00000-0  30899-2 0  9995
2 05715  66.5670 161.3555 0154026  98.5051 292.8353 13.62882503114671
Source of the keplerian elements: AFSPC